Weather History for Milford, UT

Change the Weather History Date:

Wednesday, January 1, 2014

  Actual Average Record
Temperature  
Mean Temperature 27 °F -  
Max Temperature 42 °F 38 °F 52 °F (1998)
Min Temperature 12 °F 17 °F -14 °F (2011)
Degree Days  
Heating Degree Days 38    
Moisture  
Dew Point 20 °F    
Average Humidity 78    
Maximum Humidity 95    
Minimum Humidity 43    
Precipitation  
Precipitation 0.00 in - - ()
Sea Level Pressure  
Sea Level Pressure 30.40 in    
Wind  
Wind Speed 5 mph (North)    
Max Wind Speed 14 mph    
Max Gust Speed -    
Visibility 10 miles    
Events      
Averages and records for this station are not official NWS values.
T = Trace of Precipitation, MM = Missing Value Source: NWS Daily Summary

Daily Weather History Graph

Daily Weather History Graph

Search for Another Location

Airport:

Trip Planner

Search our weather history database for the weather conditions in past years. The results will help you decide how hot, cold, wet, or windy it might be!

Date:

Astronomy

Jan. 01, 2014 Rise Set
Actual Time 7:49 AM MST 5:22 PM MST
Civil Twilight 7:19 AM MST 5:51 PM MST
Nautical Twilight 6:46 AM MST 6:24 PM MST
Astronomical Twilight 6:14 AM MST 6:57 PM MST
Moon 7:44 AM MST (1/1) 6:10 PM MST (1/1)
Length of Visible Light 10h 32m
Length of Day
9h 32m
New Moon, 0% of the Moon is Illuminated
Jan 1
New Moon
Jan 7
First Quarter
Jan 15
Full
Jan 23
Last Quarter
Jan 30
New

Hourly Weather History & Observations

Time (MST) Temp. Windchill Dew Point Humidity Pressure Visibility Wind Dir Wind Speed Gust Speed Precip Events Conditions
12:52 AM 21.9 °F 10.4 °F 19.0 °F 89% 30.27 in 10.0 mi West 11.5 mph - N/A   Clear
1:52 AM 21.0 °F 14.6 °F 19.0 °F 92% 30.27 in 9.0 mi South 4.6 mph - N/A   Clear
2:52 AM 19.0 °F 8.2 °F 16.0 °F 88% 30.30 in 10.0 mi NNW 9.2 mph - N/A   Clear
3:52 AM 17.1 °F 8.7 °F 14.0 °F 88% 30.33 in 10.0 mi NNW 5.8 mph - N/A   Clear
4:52 AM 15.1 °F - 12.9 °F 91% 30.35 in 10.0 mi Calm Calm - N/A   Clear
5:52 AM 19.0 °F 13.9 °F 17.1 °F 92% 30.35 in 10.0 mi North 3.5 mph - N/A   Clear
6:52 AM 19.0 °F 13.9 °F 16.0 °F 88% 30.38 in 10.0 mi North 3.5 mph - N/A   Clear
7:52 AM 14.0 °F - 12.9 °F 95% 30.42 in 8.0 mi Calm Calm - N/A   Clear
8:52 AM 21.9 °F - 19.9 °F 92% 30.44 in 8.0 mi Calm Calm - N/A   Clear
9:52 AM 28.0 °F - 23.0 °F 81% 30.45 in 10.0 mi Calm Calm - N/A   Clear
10:52 AM 34.0 °F 31.0 °F 24.1 °F 67% 30.44 in 10.0 mi Variable 3.5 mph - N/A   Clear
11:52 AM 37.0 °F 33.3 °F 25.0 °F 62% 30.44 in 10.0 mi NE 4.6 mph - N/A   Clear
12:52 PM 37.9 °F 32.7 °F 26.1 °F 62% 30.39 in 10.0 mi North 6.9 mph - N/A   Clear
1:52 PM 41.0 °F 38.0 °F 26.1 °F 55% 30.37 in 10.0 mi NNE 4.6 mph - N/A   Clear
2:52 PM 41.0 °F 35.2 °F 26.1 °F 55% 30.37 in 10.0 mi North 9.2 mph - N/A   Clear
3:52 PM 41.0 °F 33.9 °F 27.0 °F 57% 30.39 in 10.0 mi North 12.7 mph - N/A   Clear
4:52 PM 37.9 °F 29.6 °F 26.1 °F 62% 30.40 in 10.0 mi North 13.8 mph - N/A   Clear
5:52 PM 32.0 °F 23.6 °F 25.0 °F 75% 30.42 in 10.0 mi NNW 10.4 mph - N/A   Clear
6:52 PM 28.9 °F 22.8 °F 23.0 °F 78% 30.45 in 10.0 mi NNE 5.8 mph - N/A   Clear
7:52 PM 24.1 °F 18.2 °F 21.9 °F 91% 30.50 in 10.0 mi NE 4.6 mph - N/A   Clear
8:52 PM 19.9 °F - 18.0 °F 92% 30.50 in 10.0 mi Calm Calm - N/A   Clear
9:52 PM 21.9 °F - 19.0 °F 89% 30.46 in 10.0 mi Calm Calm - N/A   Clear
10:52 PM 19.0 °F - 17.1 °F 92% 30.45 in 10.0 mi Calm Calm - N/A   Clear
11:52 PM 19.9 °F 13.4 °F 16.0 °F 85% 30.43 in 10.0 mi SSE 4.6 mph - N/A   Clear